Year,Month,Day,Hour,Minute,Value (Times are PST for windspeed in km/hr)
2010,04,02,00,00,15.20
2010,04,02,00,01,13.70
2010,04,02,00,02,16.30
2010,04,02,00,03,18.20
2010,04,02,00,04,18.50
2010,04,02,00,05,15.40
2010,04,02,00,06,13.80
2010,04,02,00,07,24.60
2010,04,02,00,08,22.00
2010,04,02,00,09,22.70
2010,04,02,00,10,23.30
2010,04,02,00,11,24.10
2010,04,02,00,12,20.30
2010,04,02,00,13,19.20
2010,04,02,00,14,15.20
2010,04,02,00,15,13.70
2010,04,02,00,16,16.50
2010,04,02,00,17,16.40
2010,04,02,00,18,15.50
2010,04,02,00,19,16.10
2010,04,02,00,20,12.10
2010,04,02,00,21,12.50
2010,04,02,00,22,12.10
2010,04,02,00,23,16.60
2010,04,02,00,24,22.30
2010,04,02,00,25,10.90
2010,04,02,00,26,13.20
2010,04,02,00,27,16.40
2010,04,02,00,28,22.50
2010,04,02,00,29,13.10
2010,04,02,00,30,17.50
2010,04,02,00,31,21.90
2010,04,02,00,32,11.90
2010,04,02,00,33,14.50
2010,04,02,00,34,17.30
2010,04,02,00,35,22.90
2010,04,02,00,36,19.50
2010,04,02,00,37,17.90
2010,04,02,00,38,21.70
2010,04,02,00,39,15.20
2010,04,02,00,40,14.40
2010,04,02,00,41,21.30
2010,04,02,00,42,26.50
2010,04,02,00,43,29.00
2010,04,02,00,44,17.10
2010,04,02,00,45,17.90
2010,04,02,00,46,27.20
2010,04,02,00,47,20.50
2010,04,02,00,48,18.20
2010,04,02,00,49,21.50
2010,04,02,00,50,19.20
2010,04,02,00,51,23.10
2010,04,02,00,52,20.60
2010,04,02,00,53,19.40
2010,04,02,00,54,25.60
2010,04,02,00,55,28.60
2010,04,02,00,56,18.80
2010,04,02,00,57,19.10
2010,04,02,00,58,16.30
2010,04,02,00,59,15.20
2010,04,02,01,00,19.90
2010,04,02,01,01,21.80
2010,04,02,01,02,20.70
2010,04,02,01,03,19.80
2010,04,02,01,04,20.10
2010,04,02,01,05,19.90
2010,04,02,01,06,15.20
2010,04,02,01,07,21.10
2010,04,02,01,08,17.50
2010,04,02,01,09,22.40
2010,04,02,01,10,20.40
2010,04,02,01,11,21.70
2010,04,02,01,12,16.60
2010,04,02,01,13,16.00
2010,04,02,01,14,18.00
2010,04,02,01,15,22.30
2010,04,02,01,16,20.70
2010,04,02,01,17,18.40
2010,04,02,01,18,19.00
2010,04,02,01,19,15.70
2010,04,02,01,20,15.60
2010,04,02,01,21,18.40
2010,04,02,01,22,18.00
2010,04,02,01,23,18.60
2010,04,02,01,24,30.20
2010,04,02,01,25,32.10
2010,04,02,01,26,18.30
2010,04,02,01,27,19.20
2010,04,02,01,28,22.40
2010,04,02,01,29,21.60
2010,04,02,01,30,24.80
2010,04,02,01,31,22.60
2010,04,02,01,32,21.20
2010,04,02,01,33,23.30
2010,04,02,01,34,26.30
2010,04,02,01,35,16.20
2010,04,02,01,36,20.80
2010,04,02,01,37,22.60
2010,04,02,01,38,23.90
2010,04,02,01,39,18.90
2010,04,02,01,40,21.40
2010,04,02,01,41,15.40
2010,04,02,01,42,11.40
2010,04,02,01,43,20.50
2010,04,02,01,44,17.60
2010,04,02,01,45,19.70
2010,04,02,01,46,20.20
2010,04,02,01,47,27.30
2010,04,02,01,48,25.50
2010,04,02,01,49,21.80
2010,04,02,01,50,27.20
2010,04,02,01,51,24.00
2010,04,02,01,52,23.80
2010,04,02,01,53,22.40
2010,04,02,01,54,20.80
2010,04,02,01,55,18.00
2010,04,02,01,56,16.10
2010,04,02,01,57,17.90
2010,04,02,01,58,19.10
2010,04,02,01,59,31.40
2010,04,02,02,00,24.50
2010,04,02,02,01,15.70
2010,04,02,02,02,17.20
2010,04,02,02,03,26.70
2010,04,02,02,04,27.70
2010,04,02,02,05,21.80
2010,04,02,02,06,23.30
2010,04,02,02,07,21.80
2010,04,02,02,08,27.80
2010,04,02,02,09,27.10
2010,04,02,02,10,23.60
2010,04,02,02,11,20.20
2010,04,02,02,12,25.90
2010,04,02,02,13,15.30
2010,04,02,02,14,17.40
2010,04,02,02,15,10.10
2010,04,02,02,16,12.20
2010,04,02,02,17,17.40
2010,04,02,02,18,24.60
2010,04,02,02,19,23.90
2010,04,02,02,20,24.20
2010,04,02,02,21,24.20
2010,04,02,02,22,16.30
2010,04,02,02,23,17.50
2010,04,02,02,24,16.50
2010,04,02,02,25,18.30
2010,04,02,02,26,15.50
2010,04,02,02,27,19.90
2010,04,02,02,28,20.80
2010,04,02,02,29,15.00
2010,04,02,02,30,13.60
2010,04,02,02,31,18.00
2010,04,02,02,32,22.10
2010,04,02,02,33,15.20
2010,04,02,02,34,20.10
2010,04,02,02,35,17.50
2010,04,02,02,36,19.80
2010,04,02,02,37,21.40
2010,04,02,02,38,15.40
2010,04,02,02,39,15.20
2010,04,02,02,40,16.00
2010,04,02,02,41,27.50
2010,04,02,02,42,27.80
2010,04,02,02,43,17.40
2010,04,02,02,44,27.40
2010,04,02,02,45,25.20
2010,04,02,02,46,25.50
2010,04,02,02,47,26.50
2010,04,02,02,48,21.60
2010,04,02,02,49,19.30
2010,04,02,02,50,20.70
2010,04,02,02,51,14.70
2010,04,02,02,52,18.30
2010,04,02,02,53,20.20
2010,04,02,02,54,24.00
2010,04,02,02,55,18.30
2010,04,02,02,56,21.40
2010,04,02,02,57,18.20
2010,04,02,02,58,14.10
2010,04,02,02,59,15.70
2010,04,02,03,00,21.10
2010,04,02,03,01,19.10
2010,04,02,03,02,12.70
2010,04,02,03,03,12.50
2010,04,02,03,04,17.50
2010,04,02,03,05,18.60
2010,04,02,03,06,16.80
2010,04,02,03,07,18.90
2010,04,02,03,08,12.60
2010,04,02,03,09,16.20
2010,04,02,03,10,18.40
2010,04,02,03,11,14.60
2010,04,02,03,12,14.30
2010,04,02,03,13,14.20
2010,04,02,03,14,17.40
2010,04,02,03,15,14.00
2010,04,02,03,16,17.30
2010,04,02,03,17,8.10
2010,04,02,03,18,8.90
2010,04,02,03,19,15.20
2010,04,02,03,20,8.80
2010,04,02,03,21,15.20
2010,04,02,03,22,14.70
2010,04,02,03,23,17.00
2010,04,02,03,24,10.90
2010,04,02,03,25,12.50
2010,04,02,03,26,7.30
2010,04,02,03,27,7.50
2010,04,02,03,28,7.90
2010,04,02,03,29,9.10
2010,04,02,03,30,6.00
2010,04,02,03,31,1.00
2010,04,02,03,32,8.10
2010,04,02,03,33,13.60
2010,04,02,03,34,10.90
2010,04,02,03,35,13.30
2010,04,02,03,36,6.90
2010,04,02,03,37,4.50
2010,04,02,03,38,9.30
2010,04,02,03,39,2.20
2010,04,02,03,40,2.10
2010,04,02,03,41,3.80
2010,04,02,03,42,2.90
2010,04,02,03,43,8.20
2010,04,02,03,44,8.60
2010,04,02,03,45,12.40
2010,04,02,03,46,10.00
2010,04,02,03,47,8.40
2010,04,02,03,48,5.80
2010,04,02,03,49,5.50
2010,04,02,03,50,6.50
2010,04,02,03,51,7.00
2010,04,02,03,52,0.80
2010,04,02,03,53,0.30
2010,04,02,03,54,4.10
2010,04,02,03,55,2.70
2010,04,02,03,56,1.50
2010,04,02,03,57,0.80
2010,04,02,03,58,0.00
2010,04,02,03,59,0.00
2010,04,02,04,00,0.50
2010,04,02,04,01,0.60
2010,04,02,04,02,0.20
2010,04,02,04,03,0.00
2010,04,02,04,04,0.60
2010,04,02,04,05,3.00
2010,04,02,04,06,3.10
2010,04,02,04,07,0.30
2010,04,02,04,08,0.10
2010,04,02,04,09,2.30
2010,04,02,04,10,3.60
2010,04,02,04,11,6.40
2010,04,02,04,12,5.40
2010,04,02,04,13,3.20
2010,04,02,04,14,2.30
2010,04,02,04,15,5.60
2010,04,02,04,16,6.10
2010,04,02,04,17,8.00
2010,04,02,04,18,8.90
2010,04,02,04,19,8.70
2010,04,02,04,20,7.00
2010,04,02,04,21,5.80
2010,04,02,04,22,3.60
2010,04,02,04,23,3.10
2010,04,02,04,24,1.60
2010,04,02,04,25,0.40
2010,04,02,04,26,1.10
2010,04,02,04,27,0.90
2010,04,02,04,28,0.00
2010,04,02,04,29,0.00
2010,04,02,04,30,1.20
2010,04,02,04,31,1.90
2010,04,02,04,32,3.00
2010,04,02,04,33,1.70
2010,04,02,04,34,0.10
2010,04,02,04,35,3.30
2010,04,02,04,36,2.40
2010,04,02,04,37,1.40
2010,04,02,04,38,3.00
2010,04,02,04,39,6.40
2010,04,02,04,40,3.00
2010,04,02,04,41,1.70
2010,04,02,04,42,3.80
2010,04,02,04,43,7.50
2010,04,02,04,44,10.70
2010,04,02,04,45,5.20
2010,04,02,04,46,20.50
2010,04,02,04,47,21.20
2010,04,02,04,48,28.40
2010,04,02,04,49,31.20
2010,04,02,04,50,22.50
2010,04,02,04,51,26.10
2010,04,02,04,52,29.00
2010,04,02,04,53,25.50
2010,04,02,04,54,29.80
2010,04,02,04,55,31.90
2010,04,02,04,56,28.20
2010,04,02,04,57,20.70
2010,04,02,04,58,28.60
2010,04,02,04,59,30.40
2010,04,02,05,00,29.80
2010,04,02,05,01,32.30
2010,04,02,05,02,27.00
2010,04,02,05,03,25.20
2010,04,02,05,04,22.70
2010,04,02,05,05,23.80
2010,04,02,05,06,26.40
2010,04,02,05,07,28.60
2010,04,02,05,08,25.50
2010,04,02,05,09,31.30
2010,04,02,05,10,30.30
2010,04,02,05,11,22.50
2010,04,02,05,12,35.30
2010,04,02,05,13,31.80
2010,04,02,05,14,24.90
2010,04,02,05,15,32.10
2010,04,02,05,16,33.80
2010,04,02,05,17,30.50
2010,04,02,05,18,25.30
2010,04,02,05,19,28.50
2010,04,02,05,20,30.30
2010,04,02,05,21,29.80
2010,04,02,05,22,28.50
2010,04,02,05,23,27.30
2010,04,02,05,24,28.60
2010,04,02,05,25,29.50
2010,04,02,05,26,30.70
2010,04,02,05,27,28.20
2010,04,02,05,28,26.60
2010,04,02,05,29,30.10
2010,04,02,05,30,32.10
2010,04,02,05,31,27.70
2010,04,02,05,32,29.40
2010,04,02,05,33,24.20
2010,04,02,05,34,25.70
2010,04,02,05,35,25.70
2010,04,02,05,36,25.70
2010,04,02,05,37,25.70
2010,04,02,05,38,27.20
2010,04,02,05,39,25.70
2010,04,02,05,40,38.40
2010,04,02,05,41,37.80
2010,04,02,05,42,35.20
2010,04,02,05,43,31.10
2010,04,02,05,44,35.70
2010,04,02,05,45,32.90
2010,04,02,05,46,31.40
2010,04,02,05,47,33.30
2010,04,02,05,48,27.20
2010,04,02,05,49,26.40
2010,04,02,05,50,39.00
2010,04,02,05,51,36.90
2010,04,02,05,52,29.00
2010,04,02,05,53,17.50
2010,04,02,05,54,24.10
2010,04,02,05,55,34.00
2010,04,02,05,56,36.00
2010,04,02,05,57,29.80
2010,04,02,05,58,32.30
2010,04,02,05,59,27.60
2010,04,02,06,00,32.20
2010,04,02,06,01,33.70
2010,04,02,06,02,41.40
2010,04,02,06,03,29.20
2010,04,02,06,04,32.30
2010,04,02,06,05,41.90
2010,04,02,06,06,37.50
2010,04,02,06,07,34.10
2010,04,02,06,08,44.60
2010,04,02,06,09,38.50
2010,04,02,06,10,35.30
2010,04,02,06,11,31.60
2010,04,02,06,12,35.10
2010,04,02,06,13,31.60
2010,04,02,06,14,31.60
2010,04,02,06,15,25.70
2010,04,02,06,16,29.10
2010,04,02,06,17,30.20
2010,04,02,06,18,34.40
2010,04,02,06,19,35.80
2010,04,02,06,20,39.80
2010,04,02,06,21,36.80
2010,04,02,06,22,36.50
2010,04,02,06,23,39.70
2010,04,02,06,24,32.00
2010,04,02,06,25,36.20
2010,04,02,06,26,35.80
2010,04,02,06,27,43.30
2010,04,02,06,28,37.00
2010,04,02,06,29,36.30
2010,04,02,06,30,33.50
2010,04,02,06,31,33.60
2010,04,02,06,32,28.70
2010,04,02,06,33,38.50
2010,04,02,06,34,41.80
2010,04,02,06,35,31.60
2010,04,02,06,36,39.30
2010,04,02,06,37,45.40
2010,04,02,06,38,39.60
2010,04,02,06,39,41.90
2010,04,02,06,40,37.90
2010,04,02,06,41,44.70
2010,04,02,06,42,50.00
2010,04,02,06,43,40.80
2010,04,02,06,44,40.10
2010,04,02,06,45,41.10
2010,04,02,06,46,34.40
2010,04,02,06,47,33.70
2010,04,02,06,48,41.80
2010,04,02,06,49,38.90
2010,04,02,06,50,44.50
2010,04,02,06,51,50.60
2010,04,02,06,52,45.30
2010,04,02,06,53,40.70
2010,04,02,06,54,38.10
2010,04,02,06,55,39.50
2010,04,02,06,56,42.30
2010,04,02,06,57,47.40
2010,04,02,06,58,42.00
2010,04,02,06,59,40.60
2010,04,02,07,00,37.30
2010,04,02,07,01,46.40
2010,04,02,07,02,34.20
2010,04,02,07,03,34.70
2010,04,02,07,04,38.00
2010,04,02,07,05,46.10
2010,04,02,07,06,42.30
2010,04,02,07,07,56.00
2010,04,02,07,08,45.20
2010,04,02,07,09,56.50
2010,04,02,07,10,47.70
2010,04,02,07,11,38.80
2010,04,02,07,12,49.80
2010,04,02,07,13,44.30
2010,04,02,07,14,47.40
2010,04,02,07,15,54.00
2010,04,02,07,16,42.90
2010,04,02,07,17,44.30
2010,04,02,07,18,39.20
2010,04,02,07,19,39.30
2010,04,02,07,20,39.80
2010,04,02,07,21,42.20
2010,04,02,07,22,37.30
2010,04,02,07,23,38.10
2010,04,02,07,24,38.40
2010,04,02,07,25,36.00
2010,04,02,07,26,31.70
2010,04,02,07,27,31.30
2010,04,02,07,28,25.60
2010,04,02,07,29,33.40
2010,04,02,07,30,37.00
2010,04,02,07,31,35.80
2010,04,02,07,32,40.30
2010,04,02,07,33,38.00
2010,04,02,07,34,36.40
2010,04,02,07,35,37.90
2010,04,02,07,36,42.70
2010,04,02,07,37,41.90
2010,04,02,07,38,36.00
2010,04,02,07,39,40.50
2010,04,02,07,40,35.50
2010,04,02,07,41,37.50
2010,04,02,07,42,40.70
2010,04,02,07,43,45.20
2010,04,02,07,44,34.70
2010,04,02,07,45,39.80
2010,04,02,07,46,42.70
2010,04,02,07,47,41.80
2010,04,02,07,48,42.70
2010,04,02,07,49,49.70
2010,04,02,07,50,32.90
2010,04,02,07,51,30.90
2010,04,02,07,52,35.70
2010,04,02,07,53,34.40
2010,04,02,07,54,22.30
2010,04,02,07,55,39.30
2010,04,02,07,56,40.20
2010,04,02,07,57,28.20
2010,04,02,07,58,27.90
2010,04,02,07,59,30.20
2010,04,02,08,00,38.10
2010,04,02,08,01,34.00
2010,04,02,08,02,31.40
2010,04,02,08,03,24.60
2010,04,02,08,04,38.80
2010,04,02,08,05,37.40
2010,04,02,08,06,29.60
2010,04,02,08,07,26.10
2010,04,02,08,08,31.30
2010,04,02,08,09,32.70
2010,04,02,08,10,30.30
2010,04,02,08,11,31.00
2010,04,02,08,12,22.70
2010,04,02,08,13,38.00
2010,04,02,08,14,27.20
2010,04,02,08,15,33.90
2010,04,02,08,16,43.90
2010,04,02,08,17,40.60
2010,04,02,08,18,38.00
2010,04,02,08,19,33.20
2010,04,02,08,20,35.00
2010,04,02,08,21,27.40
2010,04,02,08,22,29.10
2010,04,02,08,23,38.30
2010,04,02,08,24,27.70
2010,04,02,08,25,32.40
2010,04,02,08,26,36.20
2010,04,02,08,27,31.90
2010,04,02,08,28,28.90
2010,04,02,08,29,29.10
2010,04,02,08,30,26.50
2010,04,02,08,31,29.50
2010,04,02,08,32,32.40
2010,04,02,08,33,24.90
2010,04,02,08,34,37.30
2010,04,02,08,35,31.10
2010,04,02,08,36,32.10
2010,04,02,08,37,46.60
2010,04,02,08,38,43.50
2010,04,02,08,39,45.60
2010,04,02,08,40,37.90
2010,04,02,08,41,38.50
2010,04,02,08,42,40.90
2010,04,02,08,43,36.80
2010,04,02,08,44,44.00
2010,04,02,08,45,39.50
2010,04,02,08,46,34.70
2010,04,02,08,47,43.60
2010,04,02,08,48,31.10
2010,04,02,08,49,34.60
2010,04,02,08,50,34.60
2010,04,02,08,51,35.10
2010,04,02,08,52,42.70
2010,04,02,08,53,38.70
2010,04,02,08,54,36.40
2010,04,02,08,55,36.40
2010,04,02,08,56,31.00
2010,04,02,08,57,27.50
2010,04,02,08,58,36.10
2010,04,02,08,59,36.50
2010,04,02,09,00,37.40
2010,04,02,09,01,39.60
2010,04,02,09,02,34.10
2010,04,02,09,03,26.70
2010,04,02,09,04,26.00
2010,04,02,09,05,29.30
2010,04,02,09,06,32.30
2010,04,02,09,07,34.50
2010,04,02,09,08,40.60
2010,04,02,09,09,38.10
2010,04,02,09,10,33.60
2010,04,02,09,11,37.40
2010,04,02,09,12,38.10
2010,04,02,09,13,36.80
2010,04,02,09,14,35.20
2010,04,02,09,15,38.40
2010,04,02,09,16,40.30
2010,04,02,09,17,39.00
2010,04,02,09,18,33.60
2010,04,02,09,19,45.10
2010,04,02,09,20,34.30
2010,04,02,09,21,32.90
2010,04,02,09,22,41.80
2010,04,02,09,23,37.90
2010,04,02,09,24,28.50
2010,04,02,09,25,43.20
2010,04,02,09,26,35.70
2010,04,02,09,27,33.80
2010,04,02,09,28,34.50
2010,04,02,09,29,38.30
2010,04,02,09,30,27.90
2010,04,02,09,31,35.50
2010,04,02,09,32,40.20
2010,04,02,09,33,41.50
2010,04,02,09,34,42.50
2010,04,02,09,35,44.80
2010,04,02,09,36,31.30
2010,04,02,09,37,43.10
2010,04,02,09,38,45.30
2010,04,02,09,39,48.30
2010,04,02,09,40,35.70
2010,04,02,09,41,37.20
2010,04,02,09,42,40.90
2010,04,02,09,43,34.80
2010,04,02,09,44,39.70
2010,04,02,09,45,31.00
2010,04,02,09,46,34.00
2010,04,02,09,47,27.10
2010,04,02,09,48,30.00
2010,04,02,09,49,22.70
2010,04,02,09,50,26.10
2010,04,02,09,51,39.60
2010,04,02,09,52,41.50
2010,04,02,09,53,43.10
2010,04,02,09,54,39.30
2010,04,02,09,55,34.50
2010,04,02,09,56,27.90
2010,04,02,09,57,44.40
2010,04,02,09,58,46.40
2010,04,02,09,59,46.20
2010,04,02,10,00,39.10
2010,04,02,10,01,50.90
2010,04,02,10,02,40.40
2010,04,02,10,03,33.60
2010,04,02,10,04,37.70
2010,04,02,10,05,38.10
2010,04,02,10,06,53.40
2010,04,02,10,07,42.30
2010,04,02,10,08,42.40
2010,04,02,10,09,45.00
2010,04,02,10,10,33.40
2010,04,02,10,11,29.00
2010,04,02,10,12,29.80
2010,04,02,10,13,41.00
2010,04,02,10,14,49.10
2010,04,02,10,15,52.90
2010,04,02,10,16,40.60
2010,04,02,10,17,37.40
2010,04,02,10,18,38.60
2010,04,02,10,19,33.10
2010,04,02,10,20,38.00
2010,04,02,10,21,38.30
2010,04,02,10,22,43.00
2010,04,02,10,23,37.10
2010,04,02,10,24,48.10
2010,04,02,10,25,39.30
2010,04,02,10,26,45.10
2010,04,02,10,27,39.30
2010,04,02,10,28,32.90
2010,04,02,10,29,29.60
2010,04,02,10,30,47.80
2010,04,02,10,31,37.90
2010,04,02,10,32,34.20
2010,04,02,10,33,34.90
2010,04,02,10,34,45.90
2010,04,02,10,35,44.60
2010,04,02,10,36,36.10
2010,04,02,10,37,38.40
2010,04,02,10,38,46.90
2010,04,02,10,39,49.40
2010,04,02,10,40,43.20
2010,04,02,10,41,42.30
2010,04,02,10,42,44.70
2010,04,02,10,43,44.70
2010,04,02,10,44,37.90
2010,04,02,10,45,36.70
2010,04,02,10,46,31.90
2010,04,02,10,47,34.40
2010,04,02,10,48,45.30
2010,04,02,10,49,38.00
2010,04,02,10,50,41.40
2010,04,02,10,51,32.70
2010,04,02,10,52,45.60
2010,04,02,10,53,41.30
2010,04,02,10,54,43.70
2010,04,02,10,55,42.90
2010,04,02,10,56,46.20
2010,04,02,10,57,32.60
2010,04,02,10,58,45.20
2010,04,02,10,59,37.00
2010,04,02,11,00,41.50
2010,04,02,11,01,33.90
2010,04,02,11,02,32.50
2010,04,02,11,03,46.30
2010,04,02,11,04,42.40
2010,04,02,11,05,43.10
2010,04,02,11,06,41.40
2010,04,02,11,07,31.90
2010,04,02,11,08,52.50
2010,04,02,11,09,56.40
2010,04,02,11,10,47.30
2010,04,02,11,11,46.40
2010,04,02,11,12,55.10
2010,04,02,11,13,36.50
2010,04,02,11,14,37.10
2010,04,02,11,15,40.50
2010,04,02,11,16,35.20
2010,04,02,11,17,37.10
2010,04,02,11,18,44.30
2010,04,02,11,19,44.20
2010,04,02,11,20,34.90
2010,04,02,11,21,43.20
2010,04,02,11,22,46.80
2010,04,02,11,23,36.30
2010,04,02,11,24,40.90
2010,04,02,11,25,53.10
2010,04,02,11,26,32.80
2010,04,02,11,27,46.70
2010,04,02,11,28,53.30
2010,04,02,11,29,38.00
2010,04,02,11,30,47.10
2010,04,02,11,31,52.10
2010,04,02,11,32,52.70
2010,04,02,11,33,35.80
2010,04,02,11,34,39.00
2010,04,02,11,35,41.80
2010,04,02,11,36,52.70
2010,04,02,11,37,45.40
2010,04,02,11,38,39.20
2010,04,02,11,39,36.10
2010,04,02,11,40,30.10
2010,04,02,11,41,35.80
2010,04,02,11,42,37.30
2010,04,02,11,43,50.10
2010,04,02,11,44,38.10
2010,04,02,11,45,38.70
2010,04,02,11,46,40.20
2010,04,02,11,47,44.30
2010,04,02,11,48,44.40
2010,04,02,11,49,38.20
2010,04,02,11,50,45.90
2010,04,02,11,51,35.50
2010,04,02,11,52,40.50
2010,04,02,11,53,36.80
2010,04,02,11,54,40.00
2010,04,02,11,55,45.10
2010,04,02,11,56,41.40
2010,04,02,11,57,42.30
2010,04,02,11,58,29.70
2010,04,02,11,59,34.60
2010,04,02,12,00,36.00
2010,04,02,12,01,39.00
2010,04,02,12,02,42.50
2010,04,02,12,03,50.20
2010,04,02,12,04,47.00
2010,04,02,12,05,34.10
2010,04,02,12,06,38.60
2010,04,02,12,07,40.30
2010,04,02,12,08,39.00
2010,04,02,12,09,43.50
2010,04,02,12,10,50.80
2010,04,02,12,11,49.30
2010,04,02,12,12,43.00
2010,04,02,12,13,46.30
2010,04,02,12,14,47.70
2010,04,02,12,15,35.20
2010,04,02,12,16,48.00
2010,04,02,12,17,41.80
2010,04,02,12,18,38.20
2010,04,02,12,19,39.90
2010,04,02,12,20,48.50
2010,04,02,12,21,41.80
2010,04,02,12,22,42.10
2010,04,02,12,23,34.10
2010,04,02,12,24,38.90
2010,04,02,12,25,52.50
2010,04,02,12,26,36.40
2010,04,02,12,27,41.40
2010,04,02,12,28,46.50
2010,04,02,12,29,48.40
2010,04,02,12,30,43.90
2010,04,02,12,31,34.40
2010,04,02,12,32,30.50
2010,04,02,12,33,27.30
2010,04,02,12,34,37.20
2010,04,02,12,35,36.80
2010,04,02,12,36,36.00
2010,04,02,12,37,35.10
2010,04,02,12,38,42.80
2010,04,02,12,39,45.50
2010,04,02,12,40,35.90
2010,04,02,12,41,48.30
2010,04,02,12,42,36.00
2010,04,02,12,43,41.80
2010,04,02,12,44,34.40
2010,04,02,12,45,39.80
2010,04,02,12,46,38.40
2010,04,02,12,47,40.90
2010,04,02,12,48,28.10
2010,04,02,12,49,28.60
2010,04,02,12,50,32.00
2010,04,02,12,51,35.90
2010,04,02,12,52,27.30
2010,04,02,12,53,34.50
2010,04,02,12,54,30.10
2010,04,02,12,55,23.40
2010,04,02,12,56,32.60
2010,04,02,12,57,32.30
2010,04,02,12,58,34.30
2010,04,02,12,59,27.40
2010,04,02,13,00,24.10
2010,04,02,13,01,40.70
2010,04,02,13,02,35.30
2010,04,02,13,03,32.30
2010,04,02,13,04,32.30
2010,04,02,13,05,32.80
2010,04,02,13,06,34.70
2010,04,02,13,07,32.10
2010,04,02,13,08,38.80
2010,04,02,13,09,31.90
2010,04,02,13,10,34.30
2010,04,02,13,11,27.50
2010,04,02,13,12,24.00
2010,04,02,13,13,32.30
2010,04,02,13,14,33.00
2010,04,02,13,15,32.80
2010,04,02,13,16,38.70
2010,04,02,13,17,33.90
2010,04,02,13,18,37.80
2010,04,02,13,19,40.00
2010,04,02,13,20,42.60
2010,04,02,13,21,29.30
2010,04,02,13,22,26.90
2010,04,02,13,23,34.10
2010,04,02,13,24,26.70
2010,04,02,13,25,23.30
2010,04,02,13,26,31.50
2010,04,02,13,27,35.00
2010,04,02,13,28,43.30
2010,04,02,13,29,30.70
2010,04,02,13,30,33.00
2010,04,02,13,31,30.60
2010,04,02,13,32,28.00
2010,04,02,13,33,31.00
2010,04,02,13,34,31.90
2010,04,02,13,35,29.10
2010,04,02,13,36,35.10
2010,04,02,13,37,31.50
2010,04,02,13,38,26.20
2010,04,02,13,39,33.40
2010,04,02,13,40,34.00
2010,04,02,13,41,35.10
2010,04,02,13,42,24.90
2010,04,02,13,43,29.90
2010,04,02,13,44,30.30
2010,04,02,13,45,29.10
2010,04,02,13,46,29.90
2010,04,02,13,47,21.60
2010,04,02,13,48,32.00
2010,04,02,13,49,34.30
2010,04,02,13,50,31.50
2010,04,02,13,51,21.30
2010,04,02,13,52,30.80
2010,04,02,13,53,31.80
2010,04,02,13,54,33.70
2010,04,02,13,55,40.30
2010,04,02,13,56,28.00
2010,04,02,13,57,23.80
2010,04,02,13,58,27.50
2010,04,02,13,59,22.20
2010,04,02,14,00,32.90
2010,04,02,14,01,25.20
2010,04,02,14,02,25.40
2010,04,02,14,03,20.10
2010,04,02,14,04,27.60
2010,04,02,14,05,23.40
2010,04,02,14,06,27.70
2010,04,02,14,07,31.80
2010,04,02,14,08,26.00
2010,04,02,14,09,26.30
2010,04,02,14,10,27.40
2010,04,02,14,11,26.70
2010,04,02,14,12,24.90
2010,04,02,14,13,30.20
2010,04,02,14,14,27.90
2010,04,02,14,15,24.80
2010,04,02,14,16,26.40
2010,04,02,14,17,33.50
2010,04,02,14,18,25.30
2010,04,02,14,19,28.50
2010,04,02,14,20,32.30
2010,04,02,14,21,22.50
2010,04,02,14,22,26.20
2010,04,02,14,23,25.10
2010,04,02,14,24,30.70
2010,04,02,14,25,24.70
2010,04,02,14,26,21.30
2010,04,02,14,27,24.00
2010,04,02,14,28,27.90
2010,04,02,14,29,28.70
2010,04,02,14,30,22.90
2010,04,02,14,31,21.50
2010,04,02,14,32,28.70
2010,04,02,14,33,21.20
2010,04,02,14,34,19.20
2010,04,02,14,35,17.90
2010,04,02,14,36,18.70
2010,04,02,14,37,17.90
2010,04,02,14,38,19.10
2010,04,02,14,39,27.80
2010,04,02,14,40,35.30
2010,04,02,14,41,34.00
2010,04,02,14,42,29.10
2010,04,02,14,43,25.80
2010,04,02,14,44,25.10
2010,04,02,14,45,22.10
2010,04,02,14,46,26.20
2010,04,02,14,47,29.50
2010,04,02,14,48,19.80
2010,04,02,14,49,18.30
2010,04,02,14,50,16.80
2010,04,02,14,51,15.80
2010,04,02,14,52,26.60
2010,04,02,14,53,19.10
2010,04,02,14,54,26.80
2010,04,02,14,55,19.70
2010,04,02,14,56,27.00
2010,04,02,14,57,24.50
2010,04,02,14,58,29.30
2010,04,02,14,59,25.70
2010,04,02,15,00,25.80
2010,04,02,15,01,31.30
2010,04,02,15,02,21.40
2010,04,02,15,03,23.20
2010,04,02,15,04,27.60
2010,04,02,15,05,32.00
2010,04,02,15,06,30.70
2010,04,02,15,07,26.40
2010,04,02,15,08,26.60
2010,04,02,15,09,21.80
2010,04,02,15,10,27.00
2010,04,02,15,11,31.50
2010,04,02,15,12,32.30
2010,04,02,15,13,17.30
2010,04,02,15,14,32.90
2010,04,02,15,15,29.70
2010,04,02,15,16,24.10
2010,04,02,15,17,15.90
2010,04,02,15,18,24.50
2010,04,02,15,19,25.90
2010,04,02,15,20,24.00
2010,04,02,15,21,26.10
2010,04,02,15,22,30.10
2010,04,02,15,23,23.30
2010,04,02,15,24,21.10
2010,04,02,15,25,14.20
2010,04,02,15,26,29.60
2010,04,02,15,27,24.60
2010,04,02,15,28,24.60
2010,04,02,15,29,29.50
2010,04,02,15,30,29.60
2010,04,02,15,31,25.40
2010,04,02,15,32,38.50
2010,04,02,15,33,32.20
2010,04,02,15,34,32.30
2010,04,02,15,35,29.20
2010,04,02,15,36,24.80
2010,04,02,15,37,16.50
2010,04,02,15,38,21.80
2010,04,02,15,39,19.40
2010,04,02,15,40,18.30
2010,04,02,15,41,15.20
2010,04,02,15,42,20.50
2010,04,02,15,43,32.40
2010,04,02,15,44,29.10
2010,04,02,15,45,26.90
2010,04,02,15,46,31.10
2010,04,02,15,47,21.50
2010,04,02,15,48,16.60
2010,04,02,15,49,23.00
2010,04,02,15,50,20.30
2010,04,02,15,51,12.20
2010,04,02,15,52,19.10
2010,04,02,15,53,19.40
2010,04,02,15,54,19.50
2010,04,02,15,55,24.40
2010,04,02,15,56,22.50
2010,04,02,15,57,17.20
2010,04,02,15,58,26.10
2010,04,02,15,59,19.60
2010,04,02,16,00,18.80
2010,04,02,16,01,20.60
2010,04,02,16,02,21.60
2010,04,02,16,03,26.50
2010,04,02,16,04,22.00
2010,04,02,16,05,22.40
2010,04,02,16,06,23.60
2010,04,02,16,07,17.50
2010,04,02,16,08,15.90
2010,04,02,16,09,21.00
2010,04,02,16,10,19.00
2010,04,02,16,11,16.40
2010,04,02,16,12,14.00
2010,04,02,16,13,10.60
2010,04,02,16,14,18.10
2010,04,02,16,15,18.30
2010,04,02,16,16,22.20
2010,04,02,16,17,17.80
2010,04,02,16,18,21.00
2010,04,02,16,19,12.90
2010,04,02,16,20,11.00
2010,04,02,16,21,23.80
2010,04,02,16,22,16.80
2010,04,02,16,23,17.70
2010,04,02,16,24,12.10
2010,04,02,16,25,19.90
2010,04,02,16,26,18.90
2010,04,02,16,27,17.90
2010,04,02,16,28,24.10
2010,04,02,16,29,19.90
2010,04,02,16,30,23.30
2010,04,02,16,31,22.10
2010,04,02,16,32,22.70
2010,04,02,16,33,24.80
2010,04,02,16,34,17.10
2010,04,02,16,35,21.40
2010,04,02,16,36,22.90
2010,04,02,16,37,15.10
2010,04,02,16,38,18.80
2010,04,02,16,39,23.30
2010,04,02,16,40,21.30
2010,04,02,16,41,25.40
2010,04,02,16,42,20.00
2010,04,02,16,43,28.00
2010,04,02,16,44,22.10
2010,04,02,16,45,24.20
2010,04,02,16,46,19.00
2010,04,02,16,47,23.30
2010,04,02,16,48,17.20
2010,04,02,16,49,20.50
2010,04,02,16,50,20.10
2010,04,02,16,51,16.30
2010,04,02,16,52,22.40
2010,04,02,16,53,16.00
2010,04,02,16,54,20.10
2010,04,02,16,55,20.60
2010,04,02,16,56,16.70
2010,04,02,16,57,21.60
2010,04,02,16,58,19.90
2010,04,02,16,59,16.60
2010,04,02,17,00,16.70
2010,04,02,17,01,19.70
2010,04,02,17,02,18.90
2010,04,02,17,03,16.70
2010,04,02,17,04,14.10
2010,04,02,17,05,18.90
2010,04,02,17,06,16.60
2010,04,02,17,07,13.60
2010,04,02,17,08,16.60
2010,04,02,17,09,18.00
2010,04,02,17,10,14.40
2010,04,02,17,11,15.50
2010,04,02,17,12,7.20
2010,04,02,17,13,20.40
2010,04,02,17,14,24.00
2010,04,02,17,15,19.30
2010,04,02,17,16,28.20
2010,04,02,17,17,27.40
2010,04,02,17,18,24.10
2010,04,02,17,19,27.50
2010,04,02,17,20,21.90
2010,04,02,17,21,17.30
2010,04,02,17,22,16.50